ZHANGZHENG-1 (CSES) (43194 NORAD) Tracking and Keplerian Element Data

This shows tracking and keplerian element data for the satellite.

Feedback or suggestion? Click here.




ElementValue
Catalog43194
NameZHANGZHENG-1 (CSES)
Epoch Orbit32997
Epoch Day13.14874413
Epoch Year2024
RAAN155.5571
Inclination97.5874
Eccentricity0.0017464
Argument of Perigee349.676
Mean Anonmoly10.4113
Mean Motion15.20762487
Decay Rate0.00017671
L11 43194U 18015C 24013.14874413 .00017671 00000+0 80120-3 0 9993
L22 43194 97.5874 155.5571 0017464 349.6760 10.4113 15.20762487329971



Live tracking and technical data element details for ZHANGZHENG-1 (CSES) (NORAD 43194). ZHANGZHENG-1 (CSES) can be tracked NOW for your location showing map with azimuth and elevation plus other details from your city location.







IsCatalogInMostPopularTable: catalog: 43194, numindb: 712
Update: records affected: 1



GetName: 43194 ZHANGZHENG-1 (CSES)

Hit Count: updated at: Fri, 19 Apr 2024 12:10:18 GMT